EUTELSAT 172B (42741 NORAD) Tracking and Keplerian Element Data

This shows tracking and keplerian element data for the satellite.

Feedback or suggestion? Click here.




ElementValue
Catalog42741
NameEUTELSAT 172B
Epoch Orbit1633
Epoch Day261.90229279
Epoch Year2021
RAAN189.286
Inclination0.0181
Eccentricity1.61E-05
Argument of Perigee283.7946
Mean Anonmoly21.7777
Mean Motion1.00273085
Decay Rate-2.9E-07
L11 42741U 17029B 21261.90229279 -.00000029 00000-0 00000+0 0 9990
L22 42741 0.0181 189.2860 0000161 283.7946 21.7777 1.00273085 16331

Live tracking and technical data element details for EUTELSAT 172B (NORAD 42741). EUTELSAT 172B can be tracked NOW for your location showing map with azimuth and elevation plus other details from your city location.

Track the satellite on the map from your city or location and see movement details for azimuth, elevation, latitude, longitude, range, height, and movement on the map or in text.







IsCatalogInMostPopularTable: catalog: 42741, numindb: 546
Update: records affected: 1



GetName: 42741 EUTELSAT 172B

Hit Count: updated at: Sun, 26 Sep 2021 00:17:43 GMT